Weather History for KS25 - January, 2014

Change the Weather History Date:

Tuesday, January 7, 2014

  Actual Average (KISN) Record (KISN)
Temperature  
Mean Temperature 2 °F 10 °F  
Max Temperature 5 °F 21 °F 48 °F (1963)
Min Temperature 0 °F 1 °F -38 °F (1937)
Degree Days  
Heating Degree Days 62 55  
Month to date heating degree days 382  
Since 1 July heating degree days 4129  
Cooling Degree Days 0 0  
Month to date cooling degree days 0  
Year to date cooling degree days 0  
Moisture  
Dew Point -2 °F    
Average Humidity 81    
Maximum Humidity 92    
Minimum Humidity 72    
Precipitation  
Precipitation 0.02 in 0.02 in 0.46 in (1977)
Month to date precipitation 0.15  
Year to date precipitation 0.15  
Sea Level Pressure  
Sea Level Pressure 30.03 in    
Wind  
Wind Speed 5 mph (NNE)    
Max Wind Speed 8 mph    
Max Gust Speed -    
Visibility 10 miles    
Events Snow    
T = Trace of Precipitation, MM = Missing Value Source: NWS Daily Summary

Daily Weather History Graph

Daily Weather History Graph

Search for Another Location

Airport or City:

Trip Planner

Search our weather history database for the weather conditions in past years. The results will help you decide how hot, cold, wet, or windy it might be!

Date:

Astronomy

Jan. 07, 2014 Rise Set
Actual Time 8:41 AM CST 5:18 PM CST
Civil Twilight 8:05 AM CST 5:53 PM CST
Nautical Twilight 7:26 AM CST 6:32 PM CST
Astronomical Twilight 6:49 AM CST 7:09 PM CST
Moon 11:57 AM CST (1/7) 12:23 AM CST (1/7)
Length of Visible Light 9h 48m
Length of Day
8h 36m
Waxing Crescent, 46% of the Moon is Illuminated
Jan 7
Waxing Crescent
Jan 7
First Quarter
Jan 15
Full
Jan 23
Last Quarter
Jan 30
New

Hourly Weather History & Observations

Time (CST) Temp. Windchill Dew Point Humidity Pressure Visibility Wind Dir Wind Speed Gust Speed Precip Events Conditions
12:15 AM 1.4 °F -11.3 °F -2.2 °F 85% 29.88 in 10.0 mi ESE 6.9 mph - N/A Snow Light Snow
12:35 AM 1.4 °F -11.3 °F -2.2 °F 85% 29.87 in 7.0 mi ESE 6.9 mph - 0.01 in Snow Light Snow
12:55 AM 1.4 °F -11.3 °F -2.2 °F 85% 29.86 in 8.0 mi ESE 6.9 mph - 0.02 in Snow Light Snow
1:15 AM 1.4 °F -12.5 °F -2.2 °F 85% 29.86 in 10.0 mi ESE 8.1 mph - N/A Snow Light Snow
1:35 AM 1.4 °F -11.3 °F -0.4 °F 92% 29.87 in 10.0 mi ESE 6.9 mph - N/A Snow Light Snow
1:55 AM 1.4 °F -9.9 °F -0.4 °F 92% 29.87 in 8.0 mi ESE 5.8 mph - N/A Snow Light Snow
2:15 AM 3.2 °F -7.8 °F -0.4 °F 85% 29.87 in 10.0 mi ESE 5.8 mph - N/A   Overcast
2:35 AM 3.2 °F -4.2 °F -0.4 °F 85% 29.88 in 10.0 mi East 3.5 mph - N/A   Overcast
2:55 AM 3.2 °F - -0.4 °F 85% 29.88 in 10.0 mi Calm Calm - N/A   Overcast
3:15 AM 3.2 °F - -0.4 °F 85% 29.88 in 10.0 mi Calm Calm - N/A   Overcast
3:35 AM 3.2 °F - -0.4 °F 85% 29.89 in 10.0 mi Calm Calm - N/A   Overcast
3:55 AM 5.0 °F -2.1 °F -0.4 °F 78% 29.91 in 10.0 mi NNW 3.5 mph - N/A   Overcast
4:15 AM 5.0 °F - -0.4 °F 78% 29.90 in 10.0 mi Calm Calm - N/A   Overcast
4:35 AM 5.0 °F -2.1 °F -0.4 °F 78% 29.92 in 10.0 mi North 3.5 mph - N/A   Overcast
4:55 AM 5.0 °F -4.1 °F -0.4 °F 78% 29.92 in 10.0 mi NNW 4.6 mph - N/A   Overcast
5:15 AM 5.0 °F -4.1 °F -0.4 °F 78% 29.93 in 10.0 mi North 4.6 mph - N/A Snow Light Snow
5:35 AM 5.0 °F -2.1 °F -0.4 °F 78% 29.94 in 10.0 mi North 3.5 mph - N/A   Overcast
5:55 AM 5.0 °F - -0.4 °F 78% 29.94 in 10.0 mi Calm Calm - N/A   Overcast
6:15 AM 5.0 °F -2.1 °F -0.4 °F 78% 29.95 in 10.0 mi NNW 3.5 mph - N/A   Overcast
6:35 AM 5.0 °F -6.9 °F -0.4 °F 78% 29.94 in 10.0 mi NE 6.9 mph - N/A   Overcast
6:55 AM 3.2 °F -9.1 °F -0.4 °F 85% 29.95 in 10.0 mi NE 6.9 mph - N/A   Overcast
7:15 AM 3.2 °F -6.2 °F -0.4 °F 85% 29.96 in 10.0 mi North 4.6 mph - N/A   Overcast
7:35 AM 3.2 °F -6.2 °F -0.4 °F 85% 29.97 in 10.0 mi NNW 4.6 mph - N/A   Overcast
7:55 AM 3.2 °F -6.2 °F -0.4 °F 85% 29.99 in 9.0 mi NW 4.6 mph - N/A Snow Light Snow
8:15 AM 3.2 °F -7.8 °F -0.4 °F 85% 30.00 in 10.0 mi NNW 5.8 mph - N/A Snow Light Snow
8:35 AM 3.2 °F -10.3 °F -0.4 °F 85% 30.00 in 10.0 mi North 8.1 mph - N/A Snow Light Snow
8:55 AM 3.2 °F -9.1 °F -0.4 °F 85% 30.01 in 10.0 mi North 6.9 mph - N/A   Overcast
9:15 AM 1.4 °F -9.9 °F -2.2 °F 85% 30.02 in 10.0 mi NNE 5.8 mph - N/A   Mostly Cloudy
9:35 AM -0.4 °F -12.0 °F -5.8 °F 78% 30.02 in 10.0 mi NNE 5.8 mph - N/A   Scattered Clouds
9:55 AM -0.4 °F -10.4 °F -4.0 °F 85% 30.03 in 10.0 mi North 4.6 mph - N/A   Clear
10:15 AM -0.4 °F -10.4 °F -4.0 °F 85% 30.04 in 10.0 mi North 4.6 mph - N/A   Partly Cloudy
10:35 AM -0.4 °F -13.4 °F -4.0 °F 85% 30.06 in 10.0 mi North 6.9 mph - N/A   Mostly Cloudy
10:55 AM -0.4 °F -12.0 °F -4.0 °F 85% 30.06 in 10.0 mi North 5.8 mph - N/A   Overcast
11:15 AM 1.4 °F -8.3 °F -4.0 °F 78% 30.07 in 10.0 mi NNE 4.6 mph - N/A   Overcast
11:35 AM 1.4 °F -6.2 °F -4.0 °F 78% 30.06 in 10.0 mi NNE 3.5 mph - N/A   Overcast
11:55 AM 1.4 °F -9.9 °F -4.0 °F 78% 30.06 in 10.0 mi NNE 5.8 mph - N/A   Mostly Cloudy
12:15 PM 1.4 °F -12.5 °F -4.0 °F 78% 30.06 in 10.0 mi NNE 8.1 mph - N/A   Overcast
12:35 PM 1.4 °F -11.3 °F -4.0 °F 78% 30.06 in 10.0 mi North 6.9 mph - N/A   Overcast
12:55 PM 1.4 °F -9.9 °F -4.0 °F 78% 30.06 in 10.0 mi NNE 5.8 mph - N/A   Overcast
1:15 PM 1.4 °F -8.3 °F -4.0 °F 78% 30.05 in 10.0 mi NNE 4.6 mph - N/A   Overcast
1:35 PM 1.4 °F -8.3 °F -2.2 °F 85% 30.04 in 10.0 mi NE 4.6 mph - N/A   Overcast
1:55 PM 1.4 °F -6.2 °F -2.2 °F 85% 30.04 in 10.0 mi NE 3.5 mph - N/A   Overcast
2:15 PM 3.2 °F -4.2 °F -2.2 °F 78% 30.04 in 10.0 mi North 3.5 mph - N/A   Overcast
2:35 PM 3.2 °F -4.2 °F -2.2 °F 78% 30.06 in 9.0 mi North 3.5 mph - N/A   Overcast
2:55 PM 3.2 °F -7.8 °F -2.2 °F 78% 30.07 in 10.0 mi NNE 5.8 mph - N/A Snow Light Snow
3:15 PM 3.2 °F -7.8 °F -2.2 °F 78% 30.06 in 10.0 mi North 5.8 mph - N/A   Overcast
3:35 PM 3.2 °F -4.2 °F -2.2 °F 78% 30.07 in 10.0 mi NNE 3.5 mph - N/A   Overcast
3:55 PM 3.2 °F - -2.2 °F 78% 30.08 in 10.0 mi Calm Calm - N/A   Overcast
4:15 PM 5.0 °F -8.1 °F -2.2 °F 72% 30.09 in 10.0 mi North 8.1 mph - N/A   Overcast
4:35 PM 3.2 °F -9.1 °F -2.2 °F 78% 30.09 in 10.0 mi North 6.9 mph - N/A   Overcast
4:55 PM 3.2 °F -7.8 °F -2.2 °F 78% 30.10 in 10.0 mi North 5.8 mph - N/A   Overcast
5:15 PM 3.2 °F -7.8 °F -2.2 °F 78% 30.11 in 10.0 mi North 5.8 mph - N/A   Overcast
5:35 PM 3.2 °F -6.2 °F -2.2 °F 78% 30.11 in 10.0 mi North 4.6 mph - N/A   Overcast
5:55 PM 3.2 °F -7.8 °F -2.2 °F 78% 30.12 in 10.0 mi NNW 5.8 mph - N/A   Overcast
6:15 PM 3.2 °F -7.8 °F -2.2 °F 78% 30.12 in 10.0 mi NNW 5.8 mph - N/A   Overcast
6:35 PM 1.4 °F -9.9 °F -2.2 °F 85% 30.12 in 10.0 mi NNW 5.8 mph - N/A   Overcast
6:55 PM 1.4 °F -9.9 °F -2.2 °F 85% 30.13 in 10.0 mi NW 5.8 mph - N/A   Overcast
7:15 PM 1.4 °F -8.3 °F -2.2 °F 85% 30.13 in 10.0 mi NW 4.6 mph - N/A   Overcast
7:35 PM 1.4 °F -8.3 °F -2.2 °F 85% 30.14 in 10.0 mi NW 4.6 mph - N/A   Overcast
7:55 PM 1.4 °F -8.3 °F -2.2 °F 85% 30.14 in 10.0 mi NW 4.6 mph - N/A   Overcast
8:15 PM 1.4 °F -8.3 °F -2.2 °F 85% 30.14 in 10.0 mi NNW 4.6 mph - N/A   Overcast
8:35 PM 1.4 °F -8.3 °F -2.2 °F 85% 30.14 in 10.0 mi North 4.6 mph - N/A   Overcast
8:55 PM 1.4 °F -8.3 °F -2.2 °F 85% 30.15 in 10.0 mi North 4.6 mph - N/A   Overcast
9:15 PM 1.4 °F -9.9 °F -4.0 °F 78% 30.15 in 10.0 mi North 5.8 mph - N/A   Overcast
9:35 PM 1.4 °F -9.9 °F -4.0 °F 78% 30.15 in 10.0 mi NNE 5.8 mph - N/A   Overcast
9:55 PM 1.4 °F -8.3 °F -4.0 °F 78% 30.15 in 10.0 mi NNE 4.6 mph - N/A   Overcast
10:15 PM 1.4 °F -8.3 °F -4.0 °F 78% 30.15 in 10.0 mi NNE 4.6 mph - N/A   Overcast
10:35 PM 1.4 °F -8.3 °F -4.0 °F 78% 30.15 in 10.0 mi NNE 4.6 mph - N/A   Overcast
10:55 PM 1.4 °F -8.3 °F -4.0 °F 78% 30.15 in 10.0 mi NE 4.6 mph - N/A   Overcast
11:15 PM 1.4 °F -11.3 °F -4.0 °F 78% 30.15 in 10.0 mi NNE 6.9 mph - N/A   Overcast
11:35 PM 1.4 °F -11.3 °F -4.0 °F 78% 30.15 in 10.0 mi NNE 6.9 mph - N/A   Overcast
11:55 PM 1.4 °F -9.9 °F -4.0 °F 78% 30.16 in 10.0 mi NNE 5.8 mph - N/A   Overcast